Flag for Bermuda Weather past 2 weeks in Hamilton, Bermuda

Now
72 °F

Overcast.


Feels Like: 72 °F
Forecast: 65 / 71 °F
Wind: 28 mph from South

Location: Bermuda

Current Time: Jan 25, 2015 at 12:10:40 AM

Latest Report: Jan 24, 2015 at 10:55 PM


Visibility: N/A

Pressure: 29.80 "Hg

Humidity: 78%

Dew point: 64 °F

Location of HamiltonLocation

Historic Weather in Hamilton — Graph

°F

Hamilton temperature yesterday

Maximum temperature yesterday: 72 °F (at 10:55 PM)
Minimum temperature yesterday: 57 °F (at 12:55 AM)
Average temperature yesterday: 65 °F

Past Weeks' High & Low Weather Summary

 TemperatureHumidityPressure
High75 °F (Jan 13, 1:55 PM)94% (Jan 14, 8:55 PM)30.54 "Hg (Jan 14, 8:55 PM)
Low57 °F (Jan 18, 6:55 AM)46% (Jan 18, 10:55 AM)29.77 "Hg (Jan 16, 4:55 PM)
Average67 °F72%30.13 "Hg
* Reported Jan 9 10:55 PM — Jan 24 10:55 PM, Hamilton, Weather by CustomWeather, © 2014

Note: Actual official high and low records may vary slightly from our data, if they occured in-between our weather recording intervals... More about our weather records

Advertising

Hamilton weather history for previous 24 hours

 ConditionsComfort  
Time TempWeatherWind HumidityBarometerVisibility
10:55 PM
Jan 24
72 °FOvercast.28 mph78%29.80 "HgN/A
9:55 PM70 °FPassing clouds.25 mph83%29.83 "HgN/A
8:55 PM70 °FMostly cloudy.25 mph83%29.86 "HgN/A
7:55 PM70 °FSprinkles. Mostly cloudy.25 mph78%29.86 "HgN/A
6:55 PM70 °FPartly cloudy.26 mph73%29.89 "HgN/A
5:55 PM70 °FPartly cloudy.30 mph73%29.89 "HgN/A
4:55 PM70 °FBroken clouds.26 mph69%29.92 "HgN/A
3:55 PM70 °FBroken clouds.29 mph64%29.92 "HgN/A
2:55 PM70 °FCloudy.28 mph60%29.95 "HgN/A
1:55 PM70 °FCloudy.26 mph69%29.98 "HgN/A
12:55 PM68 °FBroken clouds.24 mph69%30.01 "HgN/A
11:55 AM68 °FCloudy.24 mph69%30.04 "HgN/A
10:55 AM68 °FBroken clouds.20 mph64%30.07 "HgN/A
9:55 AM66 °FBroken clouds.16 mph68%30.09 "HgN/A
8:55 AM66 °FBroken clouds.15 mph64%30.09 "HgN/A
7:55 AM63 °FBroken clouds.13 mph68%30.09 "HgN/A
6:55 AM57 °FPartly cloudy.9 mph82%30.09 "HgN/A
5:55 AM59 °FPartly cloudy.No wind82%30.09 "HgN/A
4:55 AM57 °FPartly cloudy.No wind88%30.09 "HgN/A
3:55 AM57 °FPassing clouds.1 mph77%30.12 "HgN/A
2:55 AM59 °FPassing clouds.6 mph68%30.12 "HgN/A
1:55 AM59 °FPassing clouds.3 mph72%30.12 "HgN/A
12:55 AM57 °FPassing clouds.1 mph82%30.12 "HgN/A
Weather by CustomWeather, © 2014

See weather overviewHow to use our weather pages